SAUDISAT 1C (SO-50) (27607 NORAD) Tracking and Keplerian Element Data

This shows tracking and keplerian element data for the satellite.

Feedback or suggestion? Click here.




ElementValue
Catalog27607
NameSAUDISAT 1C (SO-50)
Epoch Orbit92939
Epoch Day91.7699326
Epoch Year2020
RAAN251.8788
Inclination64.5543
Eccentricity0.0057693
Argument of Perigee197.2794
Mean Anonmoly162.6346
Mean Motion14.75620401
Decay Rate2.9E-07
L11 27607U 02058C 20091.76993260 .00000029 00000-0 24875-4 0 9992
L22 27607 64.5543 251.8788 0057693 197.2794 162.6346 14.75620401929399

Live tracking and technical data element details for SAUDISAT 1C (SO-50) (NORAD 27607). SAUDISAT 1C (SO-50) can be tracked NOW for your location showing map with azimuth and elevation plus other details from your city location.

Track the satellite on the map from your city or location and see movement details for azimuth, elevation, latitude, longitude, range, height, and movement on the map or in text.







IsCatalogInMostPopularTable: catalog: 27607, numindb: 343
Update: records affected: 1



GetName: 27607 SAUDISAT 1C (SO-50)

Hit Count: updated at: Fri, 03 Apr 2020 06:45:20 GMT